Abilene, TX

9:29 AM CDT on May 20, 2018 (GMT -0500)
Abilene Regional

Weather History for KABI - October, 2012

Change the Weather History Date:

Sunday, October 28, 2012

  Actual Average Record
Temperature  
Mean Temperature 48 °F 62 °F  
Max Temperature 63 °F 74 °F 91 °F (1950)
Min Temperature 33 °F 51 °F 28 °F (1925)
Degree Days  
Heating Degree Days 17 5  
Month to date heating degree days 115 76  
Since 1 July heating degree days 121 87  
Cooling Degree Days 0 2  
Month to date cooling degree days 123 111  
Year to date cooling degree days 2996 2382  
Moisture  
Dew Point 29 °F    
Average Humidity 57    
Maximum Humidity 89    
Minimum Humidity 25    
Precipitation  
Precipitation 0.00 in 0.08 in 1.64 in (1996)
Month to date precipitation 0.73 2.74  
Year to date precipitation 22.87 21.94  
Sea Level Pressure  
Sea Level Pressure 30.23 in    
Wind  
Wind Speed 3 mph (SE)    
Max Wind Speed 9 mph    
Max Gust Speed 12 mph    
Visibility 10 miles    
Events      
T = Trace of Precipitation, MM = Missing Value Source: NWS Daily Summary

Daily Weather History Graph

Daily Weather History Graph

Search for Another Location

Airport or City:

Astronomy

Oct. 28, 2012 Rise Set
Actual Time 7:53 AM CDT 6:51 PM CDT
Civil Twilight 7:27 AM CDT 7:16 PM CDT
Nautical Twilight 6:58 AM CDT 7:45 PM CDT
Astronomical Twilight 6:30 AM CDT 8:14 PM CDT
Moon 6:09 PM CDT (10/28) 6:49 AM CDT (10/28)
Length of Visible Light 11h 48m
Length of Day
10h 58m
Waxing Gibbous, 99% of the Moon is Illuminated
Oct 28
Waxing Gibbous
Oct 29
Full
Nov 6
Last Quarter
Nov 13
New
Nov 20
First Quarter

Hourly Weather History & Observations

Time (CDT) Temp. Windchill Dew Point Humidity Pressure Visibility Wind Dir Wind Speed Gust Speed Precip Events Conditions
12:52 AM 37.9 °F - 30.0 °F 73% 30.25 in 10.0 mi Calm Calm - N/A   Clear
1:52 AM 42.1 °F - 25.0 °F 51% 30.23 in 10.0 mi Calm Calm - N/A   Clear
2:52 AM 35.1 °F 30.1 °F 30.9 °F 85% 30.23 in 10.0 mi SSW 5.8 mph - N/A   Clear
3:52 AM 37.0 °F 34.5 °F 30.0 °F 76% 30.23 in 10.0 mi South 3.5 mph - N/A   Clear
4:52 AM 39.0 °F - 26.1 °F 60% 30.22 in 10.0 mi Calm Calm - N/A   Clear
5:52 AM 35.1 °F - 28.9 °F 78% 30.24 in 10.0 mi Calm Calm - N/A   Clear
6:52 AM 34.0 °F - 28.9 °F 82% 30.26 in 10.0 mi Calm Calm - N/A   Clear
7:52 AM 34.0 °F 31.0 °F 30.0 °F 85% 30.28 in 10.0 mi South 3.5 mph - N/A   Clear
8:52 AM 36.0 °F - 30.9 °F 82% 30.30 in 10.0 mi Calm Calm - N/A   Clear
9:52 AM 46.0 °F - 32.0 °F 58% 30.30 in 10.0 mi Calm Calm - N/A   Clear
10:52 AM 52.0 °F - 28.9 °F 41% 30.29 in 10.0 mi South 4.6 mph - N/A   Clear
11:52 AM 55.0 °F - 26.1 °F 33% 30.27 in 10.0 mi Calm Calm - N/A   Clear
12:52 PM 57.0 °F - 26.1 °F 30% 30.27 in 10.0 mi Calm Calm - N/A   Clear
1:52 PM 60.1 °F - 27.0 °F 28% 30.23 in 10.0 mi NE 3.5 mph - N/A   Clear
2:52 PM 61.0 °F - 28.9 °F 30% 30.21 in 10.0 mi South 4.6 mph - N/A   Clear
3:52 PM 63.0 °F - 27.0 °F 26% 30.17 in 10.0 mi Calm Calm - N/A   Clear
4:52 PM 62.1 °F - 27.0 °F 26% 30.16 in 10.0 mi SSE 3.5 mph - N/A   Clear
5:52 PM 61.0 °F - 28.0 °F 29% 30.16 in 10.0 mi ESE 5.8 mph - N/A   Clear
6:52 PM 57.0 °F - 32.0 °F 39% 30.17 in 10.0 mi ESE 5.8 mph - N/A   Clear
7:52 PM 53.1 °F - 30.9 °F 43% 30.19 in 10.0 mi ESE 5.8 mph - N/A   Clear
8:52 PM 51.1 °F - 32.0 °F 48% 30.20 in 10.0 mi ESE 5.8 mph - N/A   Clear
9:52 PM 46.9 °F - 33.1 °F 59% 30.19 in 10.0 mi SE 5.8 mph - N/A   Clear
10:52 PM 48.0 °F - 30.9 °F 52% 30.20 in 10.0 mi ESE 4.6 mph - N/A   Clear
11:52 PM 44.1 °F 40.1 °F 30.9 °F 60% 30.21 in 10.0 mi SSE 6.9 mph - N/A   Clear